Regional Weather Roundup
Issued by NWS

Home | Current Version | Previous Version | Text Only | Print | Product List | Glossary On
Versions: 1 2 3 4 5 6 7 8 9 10 11 12 13 14 15 16 17 18 19 20 21 22 23 24 25 26 27 28 29 30 31 32 33 34 35 36 37 38 39 40 41 42 43 44 45 46 47 48 49 50
000
ASCA44 KEWX 062011
RWRMX

LATIN AMERICA AND CARIBBEAN REGIONAL WEATHER ROUNDUP
NATIONAL WEATHER SERVICE AUSTIN/SAN ANTONIO TX
300 PM CDT WED MAY 06 2015

NOTE: "FAIR" INDICATED FEW OR NO CLOUDS BELOW 12,000 FEET WITH NO
SIGNIFICANT WEATHER AND/OR OBSTRUCTIONS TO VISIBILITY.

BAJA CALIFORNIA

CITY           SKY/WX    TMP DP  RH WIND       PRES   REMARKS
LORETO         SUNNY     81  63  54 E12       29.82F
LA PAZ         SUNNY     82  48  30 S14       29.88
MEXICALI       SUNNY     81  36  19 SE5       29.75
S.J. DEL CABO  MOSUNNY   82  52  34 SE14      29.87F
TIJUANA        CLOUDY    63  48  59 SW10      29.92F

NORTHWESTERN MEXICO

CITY           SKY/WX    TMP DP  RH WIND       PRES   REMARKS
CULIACAN       MOSUNNY   93  54  26 SW6       29.87  HX  91
DURANGO        PTSUNNY   81  32  17 S17       30.09F
GUAYMAS        SUNNY     79  64  61 S17       29.79
HERMOSILLO     SUNNY     90  46  22 S15       29.83
CD. JUAREZ     SUNNY     82  45  26 W17       29.85
LOS MOCHIS     SUNNY     81  55  41 SW12      29.88F
OBREGON        MOSUNNY   86  43  22 S12       29.81

NORTHEASTERN MEXICO

CITY           SKY/WX    TMP DP  RH WIND       PRES   REMARKS
CHIHUAHUA      SUNNY     84  25  11 S9        29.93
MATAMOROS      CLOUDY    84  73  70 SE17      29.90  HX  91
MONCLOVA         N/A    N/A N/A N/A MISG        N/A
MONTERREY      PTSUNNY   81  68  65 SE13      29.84F
NUEVO LAREDO   PTSUNNY   84  75  74 SE12      29.86  HX  92
PIEDRAS NEGRAS CLOUDY    81  70  69 SE12      29.87F
REYNOSA        CLOUDY    81  68  65 SE16      29.85
SALTILLO       PTSUNNY   88  59  37 N9        30.00F
TORREON        MOSUNNY   91  27   9 CALM      29.92F
CD. VICTORIA   PTSUNNY   90  68  48 S8G20     29.81  HX  93

WESTERN MEXICO

CITY           SKY/WX    TMP DP  RH WIND       PRES   REMARKS
AGUASCALIENTES PTSUNNY   77  32  19 N12G23    30.20
COLIMA         MOSUNNY   88  61  40 W9        29.95F
DEL BAJIO      MOSUNNY   84  46  26 W6        30.21F
GUADALAJARA    PTSUNNY   86  41  20 W10       30.11
MANZANILLO     SUNNY     81  75  83 W12       29.83
MAZATLAN       CLOUDY    82  64  54 SW9       29.87S
P. VALLARTA    PTSUNNY   81  72  74 W14       29.87S
URUAPAN        SUNNY     79  57  47 S12       30.12F
ZACATECAS      CLOUDY    59  45  58 W17       30.30R

CENTRAL MEXICO

CITY           SKY/WX    TMP DP  RH WIND       PRES   REMARKS
CUERNAVACA     MOSUNNY   86  45  23 CALM      30.02F
MEXICO CITY    PTSUNNY   75  45  33 E6        30.23F
MORELIA        MOSUNNY   84  48  28 S6        30.14
POZA RICA      PTSUNNY   91  73  55 NE9       29.83F HX 100
PUEBLA         PTSUNNY   73  52  46 S9        30.24F
QUERETARO      PTSUNNY   68  46  45 NW12      30.18F
S. LUIS POTOSI   N/A    N/A N/A N/A MISG        N/A
TAMPICO        PTSUNNY   86  73  66 SE17      29.83F HX  93
TOLUCA         MOSUNNY   79  32  18 SW3       30.30F

SOUTHERN MEXICO

CITY           SKY/WX    TMP DP  RH WIND       PRES   REMARKS
ACAPULCO       MOSUNNY   88  77  70 SW12      29.80F HX 100
B. DE HUATULCO   N/A    N/A N/A N/A MISG        N/A
OAXACA         MOSUNNY   86  48  26 SE6       30.08F
P. ESCONDIDO   MOSUNNY   86  79  79 W13       29.98F HX  99
VERACRUZ       MOSUNNY   88  72  58 SE10      29.81F HX  94
ZIHUATANEJO    MOSUNNY   88  73  62 SW12      29.84F HX  96

YUCATAN PENINSULA

CITY           SKY/WX    TMP DP  RH WIND       PRES   REMARKS
CAMPECHE       MOSUNNY   90  75  62 NW12G23   29.79F HX 100
CANCUN         PTSUNNY   86  73  66 SE20      29.94F HX  93
CHETUMAL       MOSUNNY   86  75  70 E7        29.89  HX  95
CD. DEL CARMEN SUNNY     95  61  31 E8        29.82  HX  95
COZUMEL        PTSUNNY   84  72  65 SE12      29.93F
MERIDA         PTSUNNY  100  61  27 NE10      29.84F HX 101
MINATITLAN     SUNNY     90  68  48 N12       29.76  HX  93
TAPACHULA      MOSUNNY   90  79  70 W16       29.81F HX 105
TUX. GUTIERREZ MOSUNNY   95  57  28 N8        29.81F HX  94
VILLAHERMOSA   SUNNY     95  70  43 E9        29.83F HX 101

CENTRAL AMERICA

CITY           SKY/WX    TMP DP  RH WIND       PRES   REMARKS
BELIZE CITY    MOSUNNY   88  77  70 E12       29.88F HX 100
MANAGUA        PTCLDY    97  68  38 E9        29.74F HX 101

CARIBBEAN

CITY           SKY/WX    TMP DP  RH WIND       PRES   REMARKS
ARUBA          MOSUNNY   86  75  70 E30G41    29.83  HX  95
CURACAO        MOSUNNY   86  72  62 E16       29.89F HX  92
KINGSTON       MOSUNNY   88  72  58 SE31      29.89S HX  94
NASSAU         PTSUNNY   82  70  65 E6        30.00F
SAN JUAN       MOSUNNY   88  72  58 E23G30    30.00F HX  94
SANTO DOMINGO  MOSUNNY   86  72  62 SE12      29.97F HX  92
ST. CROIX      MOSUNNY   86  70  58 E14       30.02  HX  90
ST. KITTS      MOSUNNY   84  72  65 E16       30.00F
ST. MAARTEN    MOSUNNY   84  70  61 E14       30.00S
ST. THOMAS     MOSUNNY   84  72  65 SE16      30.01

$$




USA.gov is the U.S. government's official web portal to all federal, state and local government web resources and services.